Home > Weather > Criciúma > Past weeks

Flag for Brazil Weather for the Past 2 Weeks in Criciúma, Santa Catarina, Brazil

Now
52 °F

Clear.


Feels Like: 52 °F
Forecast: 47 / 67 °F
Wind: No wind

Location: Florianopolis Aeroporto

Current Time: May 1, 2016 at 1:25:17 AM

Latest Report: May 1, 2016 at 1:00 AM


Visibility: 10 mi

Pressure: 30.09 "Hg

Humidity: 77%

Dew Point: 45 °F

Location of CriciúmaLocation

Historic Weather in Criciúma — Graph

°F

Criciúma Temperature Yesterday

Maximum temperature yesterday: 66 °F (at 1:00 PM)
Minimum temperature yesterday: 55 °F (at 7:00 AM)
Average temperature yesterday: 60 °F

High & Low Weather Summary for the Past Weeks

 TemperatureHumidityPressure
High93 °F (Apr 18, 3:00 PM)94% (Apr 21, 10:00 PM)30.21 "Hg (Apr 21, 10:00 PM)
Low50 °F (Apr 28, 3:00 AM)25% (Apr 22, 10:00 AM)29.56 "Hg (Apr 25, 2:00 PM)
Average73 °F73%29.93 "Hg
* Reported Apr 15 11:00 PM — Apr 30 11:00 PM, Criciúma, Weather by CustomWeather, © 2016

Note: Actual official high and low records may vary slightly from our data, if they occured in-between our weather recording intervals... More about our weather records

Advertising

Criciúma Weather History for the Previous 24 Hours

Scroll right to see more
 ConditionsComfort  
Time TempWeatherWind HumidityBarometerVisibility
11:00 PM
Sat, Apr 30
57 °FClear.7 mph63%30.09 "Hg10 mi
10:00 PM57 °FClear.3 mph59%30.09 "Hg10 mi
9:00 PM55 °FPassing clouds.6 mph67%30.09 "HgN/A
8:00 PM59 °FPassing clouds.6 mph59%30.09 "HgN/A
7:00 PM61 °FPassing clouds.10 mph52%30.07 "HgN/A
6:00 PM61 °FPassing clouds.13 mph55%30.04 "HgN/A
5:00 PM64 °FPassing clouds.8 mph52%30.04 "HgN/A
4:00 PM66 °FPassing clouds.7 mph46%30.01 "HgN/A
3:00 PM66 °FPassing clouds.9 mph46%30.01 "HgN/A
2:00 PM66 °FPassing clouds.7 mph40%30.04 "HgN/A
1:00 PM66 °FPassing clouds.9 mph40%30.04 "HgN/A
12:00 PM64 °FPassing clouds.14 mph43%30.07 "HgN/A
11:00 AM63 °FPassing clouds.13 mph45%30.09 "HgN/A
10:00 AM63 °FPassing clouds.8 mph49%30.09 "HgN/A
9:00 AM59 °FPassing clouds.13 mph55%30.07 "HgN/A
8:00 AM55 °FPassing clouds.13 mph72%30.07 "HgN/A
7:00 AM55 °FPassing clouds.9 mph82%30.07 "HgN/A
6:00 AM57 °FPassing clouds.5 mph72%30.04 "HgN/A
5:00 AM57 °FPassing clouds.8 mph72%30.07 "HgN/A
4:00 AM57 °FPassing clouds.9 mph77%30.07 "HgN/A
3:00 AM57 °FPassing clouds.9 mph77%30.07 "HgN/A
2:00 AM57 °FPassing clouds.7 mph77%30.07 "HgN/A
1:00 AM59 °FPassing clouds.9 mph72%30.09 "HgN/A
Weather by CustomWeather, © 2016

See weather overviewHow to use our weather pages